Location: Baia Mare
(47.6567°N, 23.5850°E)
Time: 11:03:44
(UTC+02:00)

ISS - Pass Details

Date: 03 March 2019
Orbit: 412 x 421 km, 51.6° (Epoch: 13 November)

Event Time Altitude Azimuth Distance (km) Brightness Sun altitude
Exits shadow 05:30:14 38° 298° (WNW) 643 -3.3 -16.5°
Maximum altitude 05:31:05 51° 346° (NNW) 531 -3.4 -16.3°
Drops below altitude 10° 05:34:21 10° 64° (ENE) 1,492 0.2 -15.8°
Sets 05:36:29 0° 70° (ENE) 2,359 1.7 -15.4°
